Location: Bouchavesnes-Bergen
(49.9859°N, 2.9203°E)
Time: 23:46:51
(UTC+00:00)

Cosmos 1500 - Pass Details

Date: 09 March 2021
Orbit: 499 x 517 km, 82.5° (Epoch: 13 April)

Event Time Altitude Azimuth Distance (km) Brightness Sun altitude
Rises 04:46:03 0° 353° (N) 2,625 6.8 -15.0°
Reaches altitude 10° 04:48:13 10° 358° (N) 1,737 6.0 -14.7°
Maximum altitude 04:51:58 54° 77° (ENE) 628 4.0 -14.1°
Drops below altitude 10° 04:55:41 10° 156° (SSE) 1,733 6.0 -13.5°
Sets 04:57:51 0° 161° (SSE) 2,617 6.9 -13.2°
